{"data":{"norad_id":60051,"epoch":"2026-05-25T04:00:03.998880Z","epoch_age_seconds":60394,"freshness":"FRESH","line1":"1 60051U 24112P   26145.16671295  .00022406  00000+0  73194-3 0  9997","line2":"2 60051  53.1598  82.9655 0001469  82.8028 245.7185 15.31685500  5863","mean_motion":15.316855,"eccentricity":0.0001469,"inclination_deg":53.1598,"raan_deg":82.9655,"arg_perigee_deg":82.8028,"mean_anomaly_deg":245.7185,"bstar":0.00073194,"rev_number":586,"period_min":94.014077955298,"perigee_km":469.7771129319,"apogee_km":471.78932569233,"semimajor_km":6848.9202193121,"source":"CELESTRAK","updated_at":"2026-05-25T13:38:19.154803Z"}}